Time,TemperatureF,DewpointF,PressureIn,WindDirection,WindDirectionDegrees,WindSpeedMPH,WindSpeedGustMPH,Humidity,HourlyPrecipIn,Conditions,Clouds,dailyrainin,SoftwareType,DateUTC
2013-01-29 00:01:00,49.1,0.8,30.23,North,0,0.0,0.0,14,0.00,,,0.00,WUHU216HW,2013-01-29 05:01:00,
2013-01-29 00:03:00,49.1,-2.2,30.22,North,0,0.0,0.0,12,0.00,,,0.00,WUHU216HW,2013-01-29 05:03:00,
2013-01-29 00:08:00,49.1,2.3,30.23,North,0,0.0,0.0,15,0.00,,,0.00,WUHU216HW,2013-01-29 05:08:00,
2013-01-29 00:13:00,49.3,2.5,30.23,North,0,0.0,0.0,15,0.00,,,0.00,WUHU216HW,2013-01-29 05:13:00,
2013-01-29 00:18:00,49.3,-2.0,30.23,North,0,0.0,0.0,12,0.00,,,0.00,WUHU216HW,2013-01-29 05:18:00,
2013-01-29 00:23:00,49.3,-5.0,30.22,North,0,0.0,0.0,10,0.00,,,0.00,WUHU216HW,2013-01-29 05:23:00,
2013-01-29 00:28:00,49.3,-5.0,30.22,North,0,0.0,0.0,6,0.00,,,0.00,WUHU216HW,2013-01-29 05:28:00,
2013-01-29 00:33:00,49.5,-4.8,30.22,North,0,0.0,0.0,10,0.00,,,0.00,WUHU216HW,2013-01-29 05:33:00,
2013-01-29 00:38:00,49.5,-4.8,30.22,North,0,0.0,0.0,10,0.00,,,0.00,WUHU216HW,2013-01-29 05:38:00,
2013-01-29 00:43:00,49.5,-4.8,30.22,North,0,0.0,0.0,6,0.00,,,0.00,WUHU216HW,2013-01-29 05:43:00,
2013-01-29 00:48:00,49.7,-4.8,30.21,North,0,0.0,0.0,6,0.00,,,0.00,WUHU216HW,2013-01-29 05:48:00,
2013-01-29 00:53:00,49.7,-4.8,30.22,North,0,0.0,0.0,6,0.00,,,0.00,WUHU216HW,2013-01-29 05:53:00,
2013-01-29 00:58:00,49.7,-4.8,30.22,North,0,0.0,0.0,5,0.00,,,0.00,WUHU216HW,2013-01-29 05:58:00,
2013-01-29 01:03:00,49.7,-4.8,30.22,North,0,0.0,0.0,5,0.00,,,0.00,WUHU216HW,2013-01-29 06:03:00,
2013-01-29 01:08:00,49.7,-4.8,30.21,North,0,0.0,0.0,1,0.00,,,0.00,WUHU216HW,2013-01-29 06:08:00,
2013-01-29 01:13:00,49.7,-4.8,30.21,North,0,0.0,0.0,2,0.00,,,0.00,WUHU216HW,2013-01-29 06:13:00,
2013-01-29 01:18:00,49.7,-4.8,30.21,North,0,0.0,0.0,2,0.00,,,0.00,WUHU216HW,2013-01-29 06:18:00,
2013-01-29 01:23:00,49.5,-4.8,30.21,North,0,0.0,0.0,4,0.00,,,0.00,WUHU216HW,2013-01-29 06:23:00,
2013-01-29 01:28:00,49.7,-4.8,30.21,North,0,0.0,0.0,3,0.00,,,0.00,WUHU216HW,2013-01-29 06:28:00,
2013-01-29 01:33:00,49.5,-4.8,30.21,North,0,0.0,0.0,5,0.00,,,0.00,WUHU216HW,2013-01-29 06:33:00,
2013-01-29 01:38:00,49.7,-4.8,30.20,North,0,0.0,0.0,6,0.00,,,0.00,WUHU216HW,2013-01-29 06:38:00,
2013-01-29 01:43:00,49.5,-4.8,30.20,North,0,0.0,0.0,5,0.00,,,0.00,WUHU216HW,2013-01-29 06:43:00,
2013-01-29 01:48:00,49.5,-4.8,30.20,North,0,0.0,0.0,5,0.00,,,0.00,WUHU216HW,2013-01-29 06:48:00,
2013-01-29 01:53:00,49.5,-4.8,30.20,North,0,0.0,0.0,1,0.00,,,0.00,WUHU216HW,2013-01-29 06:53:00,
2013-01-29 01:58:00,49.5,-4.8,30.20,North,0,0.0,0.0,1,0.00,,,0.00,WUHU216HW,2013-01-29 06:58:00,
2013-01-29 02:03:00,49.5,-4.8,30.20,North,0,0.0,0.0,1,0.00,,,0.00,WUHU216HW,2013-01-29 07:03:00,
2013-01-29 02:08:00,49.3,-5.0,30.20,North,0,0.0,0.0,1,0.00,,,0.00,WUHU216HW,2013-01-29 07:08:00,
2013-01-29 02:13:00,49.5,-4.8,30.20,North,0,0.0,0.0,1,0.00,,,0.00,WUHU216HW,2013-01-29 07:13:00,
2013-01-29 02:18:00,49.5,-4.8,30.20,North,0,0.0,0.0,5,0.00,,,0.00,WUHU216HW,2013-01-29 07:18:00,
2013-01-29 02:23:00,49.5,-4.8,30.20,North,0,0.0,0.0,6,0.00,,,0.00,WUHU216HW,2013-01-29 07:23:00,
2013-01-29 02:28:00,49.5,-4.8,30.20,North,0,0.0,0.0,3,0.00,,,0.00,WUHU216HW,2013-01-29 07:28:00,
2013-01-29 02:33:00,49.3,-5.0,30.20,North,0,0.0,0.0,6,0.00,,,0.00,WUHU216HW,2013-01-29 07:33:00,
2013-01-29 02:38:00,49.3,-5.0,30.20,North,0,0.0,0.0,7,0.00,,,0.00,WUHU216HW,2013-01-29 07:38:00,
2013-01-29 02:43:00,49.3,-5.0,30.20,North,0,0.0,0.0,8,0.00,,,0.00,WUHU216HW,2013-01-29 07:43:00,
2013-01-29 02:48:00,49.1,-5.1,30.20,North,0,0.0,0.0,10,0.00,,,0.00,WUHU216HW,2013-01-29 07:48:00,
2013-01-29 02:53:00,49.0,-3.8,30.20,North,0,0.0,0.0,11,0.00,,,0.00,WUHU216HW,2013-01-29 07:53:00,
2013-01-29 02:58:00,49.0,-3.8,30.20,North,0,0.0,0.0,11,0.00,,,0.00,WUHU216HW,2013-01-29 07:58:00,
2013-01-29 03:03:00,49.0,-3.8,30.20,North,0,0.0,0.0,11,0.00,,,0.00,WUHU216HW,2013-01-29 08:03:00,
2013-01-29 03:08:00,49.0,-3.8,30.20,North,0,0.0,0.0,11,0.00,,,0.00,WUHU216HW,2013-01-29 08:08:00,
2013-01-29 03:13:00,48.8,-2.4,30.19,North,0,0.0,0.0,12,0.00,,,0.00,WUHU216HW,2013-01-29 08:13:00,
2013-01-29 03:18:00,48.6,-4.0,30.19,North,0,0.0,0.0,11,0.00,,,0.00,WUHU216HW,2013-01-29 08:18:00,
2013-01-29 03:23:00,48.6,-2.5,30.19,North,0,0.0,0.0,12,0.00,,,0.00,WUHU216HW,2013-01-29 08:23:00,
2013-01-29 03:28:00,48.6,-2.5,30.19,North,0,0.0,0.0,12,0.00,,,0.00,WUHU216HW,2013-01-29 08:28:00,
2013-01-29 03:33:00,48.4,-2.7,30.19,North,0,0.0,0.0,12,0.00,,,0.00,WUHU216HW,2013-01-29 08:33:00,
2013-01-29 03:38:00,48.2,-4.3,30.19,North,0,0.0,0.0,11,0.00,,,0.00,WUHU216HW,2013-01-29 08:38:00,
2013-01-29 03:43:00,48.2,-5.8,30.19,North,0,0.0,0.0,8,0.00,,,0.00,WUHU216HW,2013-01-29 08:43:00,
2013-01-29 03:48:00,48.2,-5.8,30.19,North,0,0.0,0.0,10,0.00,,,0.00,WUHU216HW,2013-01-29 08:48:00,
2013-01-29 03:53:00,48.2,-5.8,30.19,North,0,0.0,0.0,10,0.00,,,0.00,WUHU216HW,2013-01-29 08:53:00,
2013-01-29 03:58:00,48.2,-5.8,30.18,North,0,0.0,0.0,6,0.00,,,0.00,WUHU216HW,2013-01-29 08:58:00,
2013-01-29 04:03:00,48.4,-5.7,30.18,North,0,0.0,0.0,3,0.00,,,0.00,WUHU216HW,2013-01-29 09:03:00,
2013-01-29 04:08:00,48.6,-5.5,30.18,North,0,0.0,0.0,5,0.00,,,0.00,WUHU216HW,2013-01-29 09:08:00,
2013-01-29 04:13:00,48.8,-5.4,30.18,North,0,0.0,0.0,2,0.00,,,0.00,WUHU216HW,2013-01-29 09:13:00,
2013-01-29 04:18:00,49.0,-5.2,30.18,North,0,0.0,0.0,1,0.00,,,0.00,WUHU216HW,2013-01-29 09:18:00,
2013-01-29 04:23:00,49.1,-5.1,30.19,North,0,0.0,0.0,1,0.00,,,0.00,WUHU216HW,2013-01-29 09:23:00,
2013-01-29 04:25:00,49.1,-5.1,30.18,North,0,0.0,0.0,2,0.00,,,0.00,WUHU216HW,2013-01-29 09:25:00,
2013-01-29 04:26:00,49.1,-5.1,30.18,North,0,0.0,0.0,2,0.00,,,0.00,WUHU216HW,2013-01-29 09:26:00,
2013-01-29 04:28:00,49.1,-5.1,30.18,North,0,0.0,0.0,1,0.00,,,0.00,WUHU216HW,2013-01-29 09:28:00,
2013-01-29 04:29:00,49.1,-5.1,30.18,North,0,0.0,0.0,1,0.00,,,0.00,WUHU216HW,2013-01-29 09:29:00,
2013-01-29 04:31:00,49.1,-5.1,30.18,North,0,0.0,0.0,3,0.00,,,0.00,WUHU216HW,2013-01-29 09:31:00,
2013-01-29 04:32:00,49.1,-5.1,30.18,North,0,0.0,0.0,2,0.00,,,0.00,WUHU216HW,2013-01-29 09:32:00,
2013-01-29 04:34:00,49.1,-5.1,30.18,North,0,0.0,0.0,3,0.00,,,0.00,WUHU216HW,2013-01-29 09:34:00,
2013-01-29 04:35:00,49.1,-5.1,30.18,North,0,0.0,0.0,5,0.00,,,0.00,WUHU216HW,2013-01-29 09:35:00,
2013-01-29 04:37:00,49.0,-5.2,30.18,North,0,0.0,0.0,4,0.00,,,0.00,WUHU216HW,2013-01-29 09:37:00,
2013-01-29 04:38:00,49.0,-5.2,30.18,North,0,0.0,0.0,5,0.00,,,0.00,WUHU216HW,2013-01-29 09:38:00,
2013-01-29 04:48:00,49.0,-5.2,30.18,North,0,0.0,0.0,2,0.00,,,0.00,WUHU216HW,2013-01-29 09:48:00,
2013-01-29 04:53:00,49.1,-5.1,30.18,North,0,0.0,0.0,2,0.00,,,0.00,WUHU216HW,2013-01-29 09:53:00,
2013-01-29 04:58:00,49.1,-5.1,30.18,North,0,0.0,0.0,3,0.00,,,0.00,WUHU216HW,2013-01-29 09:58:00,
2013-01-29 05:03:00,49.1,-5.1,30.18,North,0,0.0,0.0,5,0.00,,,0.00,WUHU216HW,2013-01-29 10:03:00,
2013-01-29 05:08:00,49.1,-5.1,30.18,North,0,0.0,0.0,2,0.00,,,0.00,WUHU216HW,2013-01-29 10:08:00,
2013-01-29 05:13:00,49.1,-5.1,30.18,North,0,0.0,0.0,5,0.00,,,0.00,WUHU216HW,2013-01-29 10:13:00,
2013-01-29 05:18:00,49.1,-5.1,30.19,North,0,0.0,0.0,6,0.00,,,0.00,WUHU216HW,2013-01-29 10:18:00,
2013-01-29 05:23:00,49.0,-5.2,30.19,North,0,0.0,0.0,5,0.00,,,0.00,WUHU216HW,2013-01-29 10:23:00,
2013-01-29 05:28:00,49.0,-5.2,30.18,North,0,0.0,0.0,5,0.00,,,0.00,WUHU216HW,2013-01-29 10:28:00,
2013-01-29 05:33:00,49.1,-5.1,30.18,North,0,0.0,0.0,5,0.00,,,0.00,WUHU216HW,2013-01-29 10:33:00,
2013-01-29 05:38:00,49.1,-5.1,30.18,North,0,0.0,0.0,5,0.00,,,0.00,WUHU216HW,2013-01-29 10:38:00,
2013-01-29 05:43:00,49.1,-5.1,30.18,North,0,0.0,0.0,5,0.00,,,0.00,WUHU216HW,2013-01-29 10:43:00,
2013-01-29 05:48:00,49.3,-5.0,30.18,North,0,0.0,0.0,3,0.00,,,0.00,WUHU216HW,2013-01-29 10:48:00,
2013-01-29 05:53:00,49.3,-5.0,30.18,North,0,0.0,0.0,3,0.00,,,0.00,WUHU216HW,2013-01-29 10:53:00,
2013-01-29 05:58:00,49.3,-5.0,30.18,North,0,0.0,0.0,3,0.00,,,0.00,WUHU216HW,2013-01-29 10:58:00,
2013-01-29 06:03:00,49.3,-5.0,30.18,North,0,0.0,0.0,5,0.00,,,0.00,WUHU216HW,2013-01-29 11:03:00,
2013-01-29 06:09:00,49.3,-5.0,30.18,North,0,0.0,0.0,3,0.00,,,0.00,WUHU216HW,2013-01-29 11:09:00,
2013-01-29 06:14:00,49.5,-4.8,30.18,North,0,0.0,0.0,5,0.00,,,0.00,WUHU216HW,2013-01-29 11:14:00,
2013-01-29 06:19:00,49.5,-4.8,30.18,North,0,0.0,0.0,6,0.00,,,0.00,WUHU216HW,2013-01-29 11:19:00,
2013-01-29 06:24:00,49.5,-4.8,30.19,North,0,0.0,0.0,6,0.00,,,0.00,WUHU216HW,2013-01-29 11:24:00,
2013-01-29 06:29:00,49.5,-4.8,30.19,North,0,0.0,0.0,7,0.00,,,0.00,WUHU216HW,2013-01-29 11:29:00,
2013-01-29 06:34:00,49.3,-5.0,30.19,North,0,0.0,0.0,8,0.00,,,0.00,WUHU216HW,2013-01-29 11:34:00,
2013-01-29 06:39:00,49.3,-5.0,30.20,North,0,0.0,0.0,7,0.00,,,0.00,WUHU216HW,2013-01-29 11:39:00,
2013-01-29 06:44:00,49.3,-5.0,30.19,North,0,0.0,0.0,8,0.00,,,0.00,WUHU216HW,2013-01-29 11:44:00,
2013-01-29 06:49:00,49.1,-5.1,30.19,North,0,0.0,0.0,10,0.00,,,0.00,WUHU216HW,2013-01-29 11:49:00,
2013-01-29 06:54:00,49.1,-5.1,30.19,North,0,0.0,0.0,10,0.00,,,0.00,WUHU216HW,2013-01-29 11:54:00,
2013-01-29 06:59:00,49.0,-2.2,30.19,North,0,0.0,0.0,12,0.00,,,0.00,WUHU216HW,2013-01-29 11:59:00,
2013-01-29 07:04:00,49.0,-2.2,30.19,North,0,0.0,0.0,12,0.00,,,0.00,WUHU216HW,2013-01-29 12:04:00,
2013-01-29 07:09:00,48.6,0.5,30.19,North,0,0.0,0.0,14,0.00,,,0.00,WUHU216HW,2013-01-29 12:09:00,
2013-01-29 07:14:00,48.2,1.6,30.19,North,0,0.0,0.0,15,0.00,,,0.00,WUHU216HW,2013-01-29 12:14:00,
2013-01-29 07:19:00,48.1,1.4,30.20,North,0,0.0,0.0,15,0.00,,,0.00,WUHU216HW,2013-01-29 12:19:00,
2013-01-29 07:24:00,47.9,-0.2,30.20,North,0,0.0,0.0,14,0.00,,,0.00,WUHU216HW,2013-01-29 12:24:00,
2013-01-29 07:29:00,47.9,-0.2,30.20,North,0,0.0,0.0,14,0.00,,,0.00,WUHU216HW,2013-01-29 12:29:00,
2013-01-29 07:34:00,47.9,-3.0,30.20,North,0,0.0,0.0,12,0.00,,,0.00,WUHU216HW,2013-01-29 12:34:00,
2013-01-29 07:39:00,47.9,-3.0,30.20,North,0,0.0,0.0,12,0.00,,,0.00,WUHU216HW,2013-01-29 12:39:00,
2013-01-29 07:44:00,47.7,-4.7,30.20,North,0,0.0,0.0,11,0.00,,,0.00,WUHU216HW,2013-01-29 12:44:00,
2013-01-29 07:49:00,47.7,-6.2,30.20,North,0,0.0,0.0,10,0.00,,,0.00,WUHU216HW,2013-01-29 12:49:00,
2013-01-29 07:54:00,47.9,-6.0,30.20,North,0,0.0,0.0,10,0.00,,,0.00,WUHU216HW,2013-01-29 12:54:00,
2013-01-29 07:59:00,47.7,-6.2,30.20,North,0,0.0,0.0,10,0.00,,,0.00,WUHU216HW,2013-01-29 12:59:00,
2013-01-29 08:04:00,47.9,-6.0,30.20,North,0,0.0,0.0,8,0.00,,,0.00,WUHU216HW,2013-01-29 13:04:00,
2013-01-29 08:09:00,47.9,-6.0,30.20,North,0,0.0,0.0,10,0.00,,,0.00,WUHU216HW,2013-01-29 13:09:00,
2013-01-29 08:14:00,47.9,-6.0,30.20,North,0,0.0,0.0,10,0.00,,,0.00,WUHU216HW,2013-01-29 13:14:00,
2013-01-29 08:19:00,47.9,-6.0,30.20,North,0,0.0,0.0,9,0.00,,,0.00,WUHU216HW,2013-01-29 13:19:00,
2013-01-29 08:24:00,48.1,-5.9,30.20,North,0,0.0,0.0,8,0.00,,,0.00,WUHU216HW,2013-01-29 13:24:00,
2013-01-29 08:29:00,48.2,-5.8,30.20,North,0,0.0,0.0,8,0.00,,,0.00,WUHU216HW,2013-01-29 13:29:00,
2013-01-29 08:34:00,48.6,-5.5,30.20,North,0,0.0,0.0,6,0.00,,,0.00,WUHU216HW,2013-01-29 13:34:00,
2013-01-29 08:39:00,48.8,-5.4,30.20,North,0,0.0,0.0,6,0.00,,,0.00,WUHU216HW,2013-01-29 13:39:00,
2013-01-29 08:44:00,49.1,-5.1,30.20,North,0,0.0,0.0,2,0.00,,,0.00,WUHU216HW,2013-01-29 13:44:00,
2013-01-29 08:49:00,49.5,-4.8,30.20,North,0,0.0,0.0,3,0.00,,,0.00,WUHU216HW,2013-01-29 13:49:00,
2013-01-29 08:54:00,50.0,-4.5,30.20,North,0,0.0,0.0,5,0.00,,,0.00,WUHU216HW,2013-01-29 13:54:00,
2013-01-29 08:59:00,50.2,-4.3,30.20,North,0,0.0,0.0,7,0.00,,,0.00,WUHU216HW,2013-01-29 13:59:00,
2013-01-29 09:04:00,50.4,-4.2,30.20,North,0,0.0,0.0,7,0.00,,,0.00,WUHU216HW,2013-01-29 14:04:00,
2013-01-29 09:09:00,50.6,-4.0,30.20,North,0,0.0,0.0,8,0.00,,,0.00,WUHU216HW,2013-01-29 14:09:00,
2013-01-29 09:14:00,50.8,-4.0,30.20,North,0,0.0,0.0,10,0.00,,,0.00,WUHU216HW,2013-01-29 14:14:00,
2013-01-29 09:19:00,51.1,-2.2,30.20,North,0,0.0,0.0,11,0.00,,,0.00,WUHU216HW,2013-01-29 14:19:00,
2013-01-29 09:24:00,51.5,-1.8,30.20,North,0,0.0,0.0,11,0.00,,,0.00,WUHU216HW,2013-01-29 14:24:00,
2013-01-29 09:29:00,52.0,3.2,30.20,North,0,0.0,0.0,14,0.00,,,0.00,WUHU216HW,2013-01-29 14:29:00,
2013-01-29 09:34:00,52.2,4.8,30.20,North,0,0.0,0.0,15,0.00,,,0.00,WUHU216HW,2013-01-29 14:34:00,
2013-01-29 09:39:00,52.6,6.6,30.20,North,0,0.0,0.0,16,0.00,,,0.00,WUHU216HW,2013-01-29 14:39:00,
2013-01-29 09:44:00,52.9,8.4,30.20,North,0,0.0,0.0,17,0.00,,,0.00,WUHU216HW,2013-01-29 14:44:00,
2013-01-29 09:49:00,53.3,14.1,30.20,North,0,0.0,0.0,21,0.00,,,0.00,WUHU216HW,2013-01-29 14:49:00,
2013-01-29 09:54:00,53.6,15.4,30.20,North,0,0.0,0.0,22,0.00,,,0.00,WUHU216HW,2013-01-29 14:54:00,
2013-01-29 09:59:00,54.5,25.1,30.20,North,0,0.0,0.0,32,0.00,,,0.00,WUHU216HW,2013-01-29 14:59:00,
2013-01-29 10:04:00,55.1,24.9,30.20,North,0,0.0,0.0,31,0.00,,,0.00,WUHU216HW,2013-01-29 15:04:00,
2013-01-29 10:09:00,55.3,25.8,30.20,North,0,0.0,0.0,32,0.00,,,0.00,WUHU216HW,2013-01-29 15:09:00,
2013-01-29 10:14:00,55.8,25.5,30.20,North,0,0.0,0.0,31,0.00,,,0.00,WUHU216HW,2013-01-29 15:14:00,
2013-01-29 10:19:00,56.5,29.7,30.20,North,0,0.0,0.0,36,0.00,,,0.00,WUHU216HW,2013-01-29 15:19:00,
2013-01-29 10:24:00,56.9,30.7,30.20,North,0,0.0,0.0,37,0.00,,,0.00,WUHU216HW,2013-01-29 15:24:00,
2013-01-29 10:29:00,57.2,31.1,30.20,North,0,0.0,0.0,37,0.00,,,0.00,WUHU216HW,2013-01-29 15:29:00,
2013-01-29 10:34:00,57.6,33.5,30.21,North,0,0.0,0.0,40,0.00,,,0.00,WUHU216HW,2013-01-29 15:34:00,
2013-01-29 10:39:00,58.1,38.5,30.21,North,0,0.0,0.0,48,0.00,,,0.00,WUHU216HW,2013-01-29 15:39:00,
2013-01-29 10:44:00,58.5,38.3,30.21,North,0,0.0,0.0,47,0.00,,,0.00,WUHU216HW,2013-01-29 15:44:00,
2013-01-29 10:49:00,58.9,38.6,30.21,North,0,0.0,0.0,47,0.00,,,0.00,WUHU216HW,2013-01-29 15:49:00,
2013-01-29 10:54:00,59.2,39.0,30.20,North,0,0.0,0.0,47,0.00,,,0.00,WUHU216HW,2013-01-29 15:54:00,
2013-01-29 10:59:00,59.6,39.9,30.20,North,0,0.0,0.0,48,0.00,,,0.00,WUHU216HW,2013-01-29 15:59:00,
2013-01-29 11:04:00,59.9,42.3,30.20,North,0,0.0,0.0,52,0.00,,,0.00,WUHU216HW,2013-01-29 16:04:00,
2013-01-29 11:09:00,60.1,41.9,30.20,North,0,0.0,0.0,51,0.00,,,0.00,WUHU216HW,2013-01-29 16:09:00,
2013-01-29 11:14:00,60.5,42.8,30.20,North,0,0.0,0.0,52,0.00,,,0.00,WUHU216HW,2013-01-29 16:14:00,
2013-01-29 11:19:00,60.8,44.6,30.20,North,0,0.0,0.0,55,0.00,,,0.00,WUHU216HW,2013-01-29 16:19:00,
2013-01-29 11:24:00,61.0,43.3,30.19,North,0,0.0,0.0,52,0.00,,,0.00,WUHU216HW,2013-01-29 16:24:00,
2013-01-29 11:29:00,61.6,45.2,30.19,North,0,0.0,0.0,55,0.00,,,0.00,WUHU216HW,2013-01-29 16:29:00,
2013-01-29 11:34:00,61.9,46.5,30.19,North,0,0.0,0.0,57,0.00,,,0.00,WUHU216HW,2013-01-29 16:34:00,
2013-01-29 11:39:00,62.3,47.4,30.19,North,0,0.0,0.0,58,0.00,,,0.00,WUHU216HW,2013-01-29 16:39:00,
2013-01-29 11:44:00,62.5,47.4,30.18,North,0,0.0,0.0,58,0.00,,,0.00,WUHU216HW,2013-01-29 16:44:00,
2013-01-29 11:49:00,62.8,48.2,30.18,North,0,0.0,0.0,59,0.00,,,0.00,WUHU216HW,2013-01-29 16:49:00,
2013-01-29 11:54:00,63.0,48.4,30.17,North,0,0.0,0.0,59,0.00,,,0.00,WUHU216HW,2013-01-29 16:54:00,
2013-01-29 11:59:00,63.5,49.9,30.17,North,0,0.0,0.0,61,0.00,,,0.00,WUHU216HW,2013-01-29 16:59:00,
2013-01-29 12:04:00,63.7,50.4,30.17,North,0,0.0,0.0,62,0.00,,,0.00,WUHU216HW,2013-01-29 17:04:00,
2013-01-29 12:09:00,63.7,50.1,30.16,North,0,0.0,0.0,61,0.00,,,0.00,WUHU216HW,2013-01-29 17:09:00,
2013-01-29 12:14:00,64.1,50.8,30.16,North,0,0.0,0.0,62,0.00,,,0.00,WUHU216HW,2013-01-29 17:14:00,
2013-01-29 12:19:00,64.6,51.7,30.16,North,0,0.0,0.0,63,0.00,,,0.00,WUHU216HW,2013-01-29 17:19:00,
2013-01-29 12:24:00,65.0,52.0,30.15,North,0,0.0,0.0,63,0.00,,,0.00,WUHU216HW,2013-01-29 17:24:00,
2013-01-29 12:29:00,65.5,52.6,30.15,North,0,0.0,0.0,63,0.00,,,0.00,WUHU216HW,2013-01-29 17:29:00,
2013-01-29 12:34:00,65.9,52.9,30.15,North,0,0.0,0.0,63,0.00,,,0.00,WUHU216HW,2013-01-29 17:34:00,
2013-01-29 12:39:00,66.2,53.6,30.14,North,0,0.0,0.0,64,0.00,,,0.00,WUHU216HW,2013-01-29 17:39:00,
2013-01-29 12:44:00,66.6,53.7,30.14,North,0,0.0,0.0,63,0.00,,,0.00,WUHU216HW,2013-01-29 17:44:00,
2013-01-29 12:49:00,67.0,53.9,30.14,North,0,0.0,0.0,63,0.00,,,0.00,WUHU216HW,2013-01-29 17:49:00,
2013-01-29 12:54:00,67.1,54.6,30.14,North,0,0.0,0.0,64,0.00,,,0.00,WUHU216HW,2013-01-29 17:54:00,
2013-01-29 12:58:00,67.1,54.1,30.13,North,0,0.0,0.0,63,0.00,,,0.00,WUHU216HW,2013-01-29 17:58:00,
2013-01-29 13:04:00,67.3,54.7,30.13,North,0,0.0,0.0,64,0.00,,,0.00,WUHU216HW,2013-01-29 18:04:00,
2013-01-29 13:09:00,67.7,54.6,30.13,North,0,0.0,0.0,63,0.00,,,0.00,WUHU216HW,2013-01-29 18:09:00,
2013-01-29 13:14:00,67.9,55.2,30.13,North,0,0.0,0.0,64,0.00,,,0.00,WUHU216HW,2013-01-29 18:14:00,
2013-01-29 13:19:00,67.9,55.2,30.13,North,0,0.0,0.0,64,0.00,,,0.00,WUHU216HW,2013-01-29 18:19:00,
2013-01-29 13:24:00,68.0,55.4,30.12,North,0,0.0,0.0,64,0.00,,,0.00,WUHU216HW,2013-01-29 18:24:00,
2013-01-29 13:29:00,68.4,55.7,30.12,North,0,0.0,0.0,64,0.00,,,0.00,WUHU216HW,2013-01-29 18:29:00,
2013-01-29 13:34:00,68.4,55.3,30.12,North,0,0.0,0.0,63,0.00,,,0.00,WUHU216HW,2013-01-29 18:34:00,
2013-01-29 13:39:00,68.6,55.0,30.12,North,0,0.0,0.0,62,0.00,,,0.00,WUHU216HW,2013-01-29 18:39:00,
2013-01-29 13:44:00,68.8,55.2,30.12,North,0,0.0,0.0,62,0.00,,,0.00,WUHU216HW,2013-01-29 18:44:00,
2013-01-29 13:49:00,69.1,56.0,30.12,North,0,0.0,0.0,63,0.00,,,0.00,WUHU216HW,2013-01-29 18:49:00,
2013-01-29 13:54:00,69.3,56.6,30.12,North,0,0.0,0.0,64,0.00,,,0.00,WUHU216HW,2013-01-29 18:54:00,
2013-01-29 13:59:00,69.3,56.2,30.11,North,0,0.0,0.0,63,0.00,,,0.00,WUHU216HW,2013-01-29 18:59:00,
2013-01-29 14:04:00,68.9,56.3,30.11,North,0,0.0,0.0,64,0.00,,,0.00,WUHU216HW,2013-01-29 19:04:00,
2013-01-29 14:09:00,68.9,55.8,30.11,North,0,0.0,0.0,63,0.00,,,0.00,WUHU216HW,2013-01-29 19:09:00,
2013-01-29 14:14:00,69.1,56.4,30.10,North,0,0.0,0.0,64,0.00,,,0.00,WUHU216HW,2013-01-29 19:14:00,
2013-01-29 14:19:00,69.5,56.4,30.10,North,0,0.0,0.0,63,0.00,,,0.00,WUHU216HW,2013-01-29 19:19:00,
2013-01-29 14:24:00,69.7,56.5,30.10,North,0,0.0,0.0,63,0.00,,,0.00,WUHU216HW,2013-01-29 19:24:00,
2013-01-29 14:29:00,69.7,55.7,30.10,North,0,0.0,0.0,61,0.00,,,0.00,WUHU216HW,2013-01-29 19:29:00,
2013-01-29 14:34:00,69.8,55.4,30.10,North,0,0.0,0.0,60,0.00,,,0.00,WUHU216HW,2013-01-29 19:34:00,
2013-01-29 14:39:00,69.8,55.9,30.10,North,0,0.0,0.0,61,0.00,,,0.00,WUHU216HW,2013-01-29 19:39:00,
2013-01-29 14:44:00,69.8,55.9,30.10,North,0,0.0,0.0,61,0.00,,,0.00,WUHU216HW,2013-01-29 19:44:00,
2013-01-29 14:49:00,69.7,55.7,30.10,North,0,0.0,0.0,61,0.00,,,0.00,WUHU216HW,2013-01-29 19:49:00,
2013-01-29 14:54:00,69.7,56.1,30.10,North,0,0.0,0.0,62,0.00,,,0.00,WUHU216HW,2013-01-29 19:54:00,
2013-01-29 14:57:00,69.7,55.7,30.10,North,0,0.0,0.0,61,0.00,,,0.00,WUHU216HW,2013-01-29 19:57:00,
2013-01-29 15:02:00,70.0,55.6,30.10,North,0,0.0,0.0,60,0.00,,,0.00,WUHU216HW,2013-01-29 20:02:00,
2013-01-29 15:07:00,70.2,55.8,30.10,North,0,0.0,0.0,60,0.00,,,0.00,WUHU216HW,2013-01-29 20:07:00,
2013-01-29 15:12:00,70.2,56.2,30.10,North,0,0.0,0.0,61,0.00,,,0.00,WUHU216HW,2013-01-29 20:12:00,
2013-01-29 15:17:00,70.2,55.8,30.10,North,0,0.0,0.0,60,0.00,,,0.00,WUHU216HW,2013-01-29 20:17:00,
2013-01-29 15:22:00,70.2,56.2,30.10,North,0,0.0,0.0,61,0.00,,,0.00,WUHU216HW,2013-01-29 20:22:00,
2013-01-29 15:27:00,70.2,56.2,30.10,North,0,0.0,0.0,61,0.00,,,0.00,WUHU216HW,2013-01-29 20:27:00,
2013-01-29 15:32:00,70.4,56.3,30.10,North,0,0.0,0.0,61,0.00,,,0.00,WUHU216HW,2013-01-29 20:32:00,
2013-01-29 15:37:00,70.2,56.2,30.09,North,0,0.0,0.0,61,0.00,,,0.00,WUHU216HW,2013-01-29 20:37:00,
2013-01-29 15:42:00,70.2,56.2,30.10,North,0,0.0,0.0,61,0.00,,,0.00,WUHU216HW,2013-01-29 20:42:00,
2013-01-29 15:47:00,70.4,56.3,30.10,North,0,0.0,0.0,61,0.00,,,0.00,WUHU216HW,2013-01-29 20:47:00,
2013-01-29 15:52:00,70.2,56.2,30.10,North,0,0.0,0.0,61,0.00,,,0.00,WUHU216HW,2013-01-29 20:52:00,
2013-01-29 15:57:00,70.2,56.2,30.10,North,0,0.0,0.0,61,0.00,,,0.00,WUHU216HW,2013-01-29 20:57:00,
2013-01-29 16:02:00,70.2,56.2,30.10,North,0,0.0,0.0,61,0.00,,,0.00,WUHU216HW,2013-01-29 21:02:00,
2013-01-29 16:07:00,70.2,56.6,30.10,North,0,0.0,0.0,62,0.00,,,0.00,WUHU216HW,2013-01-29 21:07:00,
2013-01-29 16:12:00,70.2,56.2,30.09,North,0,0.0,0.0,61,0.00,,,0.00,WUHU216HW,2013-01-29 21:12:00,
2013-01-29 16:17:00,70.2,56.6,30.09,North,0,0.0,0.0,62,0.00,,,0.00,WUHU216HW,2013-01-29 21:17:00,
2013-01-29 16:22:00,70.0,56.4,30.09,North,0,0.0,0.0,62,0.00,,,0.00,WUHU216HW,2013-01-29 21:22:00,
2013-01-29 16:27:00,69.8,56.3,30.09,North,0,0.0,0.0,62,0.00,,,0.00,WUHU216HW,2013-01-29 21:27:00,
2013-01-29 16:32:00,69.8,56.3,30.09,North,0,0.0,0.0,62,0.00,,,0.00,WUHU216HW,2013-01-29 21:32:00,
2013-01-29 16:37:00,70.0,56.4,30.09,North,0,0.0,0.0,62,0.00,,,0.00,WUHU216HW,2013-01-29 21:37:00,
2013-01-29 16:42:00,70.0,56.9,30.08,North,0,0.0,0.0,63,0.00,,,0.00,WUHU216HW,2013-01-29 21:42:00,
2013-01-29 16:47:00,70.0,56.9,30.08,North,0,0.0,0.0,63,0.00,,,0.00,WUHU216HW,2013-01-29 21:47:00,
2013-01-29 16:52:00,69.7,56.5,30.09,North,0,0.0,0.0,63,0.00,,,0.00,WUHU216HW,2013-01-29 21:52:00,
2013-01-29 16:57:00,69.5,56.4,30.09,North,0,0.0,0.0,63,0.00,,,0.00,WUHU216HW,2013-01-29 21:57:00,
2013-01-29 17:02:00,69.1,56.4,30.09,North,0,0.0,0.0,64,0.00,,,0.00,WUHU216HW,2013-01-29 22:02:00,
2013-01-29 17:07:00,68.8,56.1,30.09,North,0,0.0,0.0,64,0.00,,,0.00,WUHU216HW,2013-01-29 22:07:00,
2013-01-29 17:12:00,68.6,56.4,30.08,North,0,0.0,0.0,65,0.00,,,0.00,WUHU216HW,2013-01-29 22:12:00,
2013-01-29 17:17:00,68.2,56.0,30.09,North,0,0.0,0.0,65,0.00,,,0.00,WUHU216HW,2013-01-29 22:17:00,
2013-01-29 17:22:00,67.9,55.6,30.09,North,0,0.0,0.0,65,0.00,,,0.00,WUHU216HW,2013-01-29 22:22:00,
2013-01-29 17:27:00,67.7,55.4,30.08,North,0,0.0,0.0,65,0.00,,,0.00,WUHU216HW,2013-01-29 22:27:00,
2013-01-29 17:32:00,67.3,55.1,30.08,North,0,0.0,0.0,65,0.00,,,0.00,WUHU216HW,2013-01-29 22:32:00,
2013-01-29 17:37:00,67.0,54.8,30.08,North,0,0.0,0.0,65,0.00,,,0.00,WUHU216HW,2013-01-29 22:37:00,
2013-01-29 17:42:00,66.6,54.5,30.08,North,0,0.0,0.0,65,0.00,,,0.00,WUHU216HW,2013-01-29 22:42:00,
2013-01-29 17:47:00,66.2,54.6,30.08,North,0,0.0,0.0,66,0.00,,,0.00,WUHU216HW,2013-01-29 22:47:00,
2013-01-29 17:52:00,65.9,54.2,30.08,North,0,0.0,0.0,66,0.00,,,0.00,WUHU216HW,2013-01-29 22:52:00,
2013-01-29 17:57:00,65.5,53.8,30.08,North,0,0.0,0.0,66,0.00,,,0.00,WUHU216HW,2013-01-29 22:57:00,
2013-01-29 18:02:00,65.0,53.3,30.08,North,0,0.0,0.0,66,0.00,,,0.00,WUHU216HW,2013-01-29 23:02:00,
2013-01-29 18:07:00,64.6,53.0,30.08,North,0,0.0,0.0,66,0.00,,,0.00,WUHU216HW,2013-01-29 23:07:00,
2013-01-29 18:12:00,64.3,52.7,30.08,North,0,0.0,0.0,66,0.00,,,0.00,WUHU216HW,2013-01-29 23:12:00,
2013-01-29 18:17:00,64.1,52.5,30.08,North,0,0.0,0.0,66,0.00,,,0.00,WUHU216HW,2013-01-29 23:17:00,
2013-01-29 18:22:00,63.7,52.1,30.08,North,0,0.0,0.0,66,0.00,,,0.00,WUHU216HW,2013-01-29 23:22:00,
2013-01-29 18:27:00,63.5,51.9,30.08,North,0,0.0,0.0,66,0.00,,,0.00,WUHU216HW,2013-01-29 23:27:00,
2013-01-29 18:32:00,63.4,51.8,30.08,North,0,0.0,0.0,66,0.00,,,0.00,WUHU216HW,2013-01-29 23:32:00,
2013-01-29 18:37:00,62.8,51.3,30.08,North,0,0.0,0.0,66,0.00,,,0.00,WUHU216HW,2013-01-29 23:37:00,
2013-01-29 18:42:00,62.5,51.0,30.08,North,0,0.0,0.0,66,0.00,,,0.00,WUHU216HW,2013-01-29 23:42:00,
2013-01-29 18:47:00,62.3,50.8,30.08,North,0,0.0,0.0,66,0.00,,,0.00,WUHU216HW,2013-01-29 23:47:00,
2013-01-29 18:52:00,62.3,50.8,30.07,North,0,0.0,0.0,66,0.00,,,0.00,WUHU216HW,2013-01-29 23:52:00,
2013-01-29 18:57:00,62.1,50.2,30.07,North,0,0.0,0.0,65,0.00,,,0.00,WUHU216HW,2013-01-29 23:57:00,
2013-01-29 19:02:00,61.7,49.9,30.08,North,0,0.0,0.0,65,0.00,,,0.00,WUHU216HW,2013-01-30 00:02:00,
2013-01-29 19:07:00,61.6,49.7,30.07,North,0,0.0,0.0,65,0.00,,,0.00,WUHU216HW,2013-01-30 00:07:00,
2013-01-29 19:12:00,61.2,49.4,30.08,North,0,0.0,0.0,65,0.00,,,0.00,WUHU216HW,2013-01-30 00:12:00,
2013-01-29 19:17:00,60.8,49.1,30.07,North,0,0.0,0.0,65,0.00,,,0.00,WUHU216HW,2013-01-30 00:17:00,
2013-01-29 19:22:00,60.7,48.4,30.07,North,0,0.0,0.0,64,0.00,,,0.00,WUHU216HW,2013-01-30 00:22:00,
2013-01-29 19:27:00,60.5,48.2,30.07,North,0,0.0,0.0,64,0.00,,,0.00,WUHU216HW,2013-01-30 00:27:00,
2013-01-29 19:32:00,60.3,47.3,30.07,North,0,0.0,0.0,62,0.00,,,0.00,WUHU216HW,2013-01-30 00:32:00,
2013-01-29 19:37:00,60.1,46.7,30.07,North,0,0.0,0.0,61,0.00,,,0.00,WUHU216HW,2013-01-30 00:37:00,
2013-01-29 19:42:00,59.8,45.5,30.07,North,0,0.0,0.0,59,0.00,,,0.00,WUHU216HW,2013-01-30 00:42:00,
2013-01-29 19:47:00,59.8,44.5,30.07,North,0,0.0,0.0,57,0.00,,,0.00,WUHU216HW,2013-01-30 00:47:00,
2013-01-29 19:52:00,59.6,43.8,30.07,North,0,0.0,0.0,56,0.00,,,0.00,WUHU216HW,2013-01-30 00:52:00,
2013-01-29 19:57:00,59.4,43.2,30.07,North,0,0.0,0.0,55,0.00,,,0.00,WUHU216HW,2013-01-30 00:57:00,
2013-01-29 20:02:00,59.2,42.0,30.07,North,0,0.0,0.0,53,0.00,,,0.00,WUHU216HW,2013-01-30 01:02:00,
2013-01-29 20:07:00,59.0,41.4,30.07,North,0,0.0,0.0,52,0.00,,,0.00,WUHU216HW,2013-01-30 01:07:00,
2013-01-29 20:12:00,59.0,38.2,30.07,North,0,0.0,0.0,46,0.00,,,0.00,WUHU216HW,2013-01-30 01:12:00,
2013-01-29 20:17:00,59.4,38.5,30.08,North,0,0.0,0.0,46,0.00,,,0.00,WUHU216HW,2013-01-30 01:17:00,
2013-01-29 20:22:00,59.4,38.5,30.08,North,0,0.0,0.0,46,0.00,,,0.00,WUHU216HW,2013-01-30 01:22:00,
2013-01-29 20:27:00,59.4,38.0,30.07,North,0,0.0,0.0,45,0.00,,,0.00,WUHU216HW,2013-01-30 01:27:00,
2013-01-29 20:32:00,59.4,38.5,30.08,North,0,0.0,0.0,46,0.00,,,0.00,WUHU216HW,2013-01-30 01:32:00,
2013-01-29 20:37:00,59.4,38.0,30.07,North,0,0.0,0.0,45,0.00,,,0.00,WUHU216HW,2013-01-30 01:37:00,
2013-01-29 20:42:00,59.2,38.3,30.08,North,0,0.0,0.0,46,0.00,,,0.00,WUHU216HW,2013-01-30 01:42:00,
2013-01-29 20:47:00,59.2,36.6,30.07,North,0,0.0,0.0,43,0.00,,,0.00,WUHU216HW,2013-01-30 01:47:00,
2013-01-29 20:52:00,59.2,36.1,30.07,North,0,0.0,0.0,42,0.00,,,0.00,WUHU216HW,2013-01-30 01:52:00,
2013-01-29 20:57:00,59.0,35.9,30.07,North,0,0.0,0.0,42,0.00,,,0.00,WUHU216HW,2013-01-30 01:57:00,
2013-01-29 21:02:00,59.2,35.5,30.07,North,0,0.0,0.0,41,0.00,,,0.00,WUHU216HW,2013-01-30 02:02:00,
2013-01-29 21:07:00,59.2,34.9,30.08,North,0,0.0,0.0,40,0.00,,,0.00,WUHU216HW,2013-01-30 02:07:00,
2013-01-29 21:12:00,59.4,35.1,30.07,North,0,0.0,0.0,40,0.00,,,0.00,WUHU216HW,2013-01-30 02:12:00,
2013-01-29 21:17:00,59.4,35.1,30.07,North,0,0.0,0.0,40,0.00,,,0.00,WUHU216HW,2013-01-30 02:17:00,
2013-01-29 21:22:00,59.4,35.1,30.08,North,0,0.0,0.0,40,0.00,,,0.00,WUHU216HW,2013-01-30 02:22:00,
2013-01-29 21:27:00,59.4,35.1,30.07,North,0,0.0,0.0,40,0.00,,,0.00,WUHU216HW,2013-01-30 02:27:00,
2013-01-29 21:32:00,59.4,35.6,30.08,North,0,0.0,0.0,41,0.00,,,0.00,WUHU216HW,2013-01-30 02:32:00,
2013-01-29 21:37:00,59.2,34.9,30.08,North,0,0.0,0.0,40,0.00,,,0.00,WUHU216HW,2013-01-30 02:37:00,
2013-01-29 21:42:00,59.2,34.9,30.07,North,0,0.0,0.0,40,0.00,,,0.00,WUHU216HW,2013-01-30 02:42:00,
2013-01-29 21:47:00,59.0,34.7,30.07,North,0,0.0,0.0,40,0.00,,,0.00,WUHU216HW,2013-01-30 02:47:00,
2013-01-29 21:52:00,59.0,34.7,30.07,North,0,0.0,0.0,40,0.00,,,0.00,WUHU216HW,2013-01-30 02:52:00,
2013-01-29 21:57:00,58.9,33.8,30.08,North,0,0.0,0.0,39,0.00,,,0.00,WUHU216HW,2013-01-30 02:57:00,
2013-01-29 22:02:00,58.7,33.0,30.08,North,0,0.0,0.0,38,0.00,,,0.00,WUHU216HW,2013-01-30 03:02:00,
2013-01-29 22:07:00,58.7,33.0,30.08,North,0,0.0,0.0,38,0.00,,,0.00,WUHU216HW,2013-01-30 03:07:00,
2013-01-29 22:12:00,58.7,33.0,30.08,North,0,0.0,0.0,38,0.00,,,0.00,WUHU216HW,2013-01-30 03:12:00,
2013-01-29 22:17:00,58.3,32.7,30.08,North,0,0.0,0.0,38,0.00,,,0.00,WUHU216HW,2013-01-30 03:17:00,
2013-01-29 22:22:00,58.3,31.3,30.09,North,0,0.0,0.0,36,0.00,,,0.00,WUHU216HW,2013-01-30 03:22:00,
2013-01-29 22:27:00,58.1,31.2,30.09,North,0,0.0,0.0,36,0.00,,,0.00,WUHU216HW,2013-01-30 03:27:00,
2013-01-29 22:32:00,58.1,30.4,30.09,North,0,0.0,0.0,35,0.00,,,0.00,WUHU216HW,2013-01-30 03:32:00,
2013-01-29 22:37:00,58.1,29.7,30.09,North,0,0.0,0.0,34,0.00,,,0.00,WUHU216HW,2013-01-30 03:37:00,
2013-01-29 22:42:00,58.1,28.4,30.08,North,0,0.0,0.0,32,0.00,,,0.00,WUHU216HW,2013-01-30 03:42:00,
2013-01-29 22:47:00,58.1,28.4,30.08,North,0,0.0,0.0,32,0.00,,,0.00,WUHU216HW,2013-01-30 03:47:00,
2013-01-29 22:52:00,58.0,27.5,30.08,North,0,0.0,0.0,31,0.00,,,0.00,WUHU216HW,2013-01-30 03:52:00,
2013-01-29 22:57:00,58.0,27.5,30.08,North,0,0.0,0.0,31,0.00,,,0.00,WUHU216HW,2013-01-30 03:57:00,
2013-01-29 23:02:00,58.0,27.5,30.07,North,0,0.0,0.0,31,0.00,,,0.00,WUHU216HW,2013-01-30 04:02:00,
2013-01-29 23:07:00,58.0,27.5,30.07,North,0,0.0,0.0,31,0.00,,,0.00,WUHU216HW,2013-01-30 04:07:00,
2013-01-29 23:12:00,57.8,28.0,30.07,North,0,0.0,0.0,32,0.00,,,0.00,WUHU216HW,2013-01-30 04:12:00,
2013-01-29 23:17:00,57.6,27.8,30.06,North,0,0.0,0.0,32,0.00,,,0.00,WUHU216HW,2013-01-30 04:17:00,
2013-01-29 23:22:00,57.4,27.0,30.06,North,0,0.0,0.0,31,0.00,,,0.00,WUHU216HW,2013-01-30 04:22:00,
2013-01-29 23:27:00,57.2,26.8,30.06,North,0,0.0,0.0,31,0.00,,,0.00,WUHU216HW,2013-01-30 04:27:00,
2013-01-29 23:32:00,57.2,26.8,30.06,North,0,0.0,0.0,31,0.00,,,0.00,WUHU216HW,2013-01-30 04:32:00,
2013-01-29 23:37:00,57.1,25.0,30.05,North,0,0.0,0.0,29,0.00,,,0.00,WUHU216HW,2013-01-30 04:37:00,
2013-01-29 23:42:00,57.1,23.0,30.06,North,0,0.0,0.0,27,0.00,,,0.00,WUHU216HW,2013-01-30 04:42:00,
2013-01-29 23:47:00,56.9,18.2,30.06,North,0,0.0,0.0,22,0.00,,,0.00,WUHU216HW,2013-01-30 04:47:00,
2013-01-29 23:52:00,56.9,17.2,30.06,North,0,0.0,0.0,21,0.00,,,0.00,WUHU216HW,2013-01-30 04:52:00,
2013-01-29 23:57:00,57.2,13.5,30.06,North,0,0.0,0.0,18,0.00,,,0.00,WUHU216HW,2013-01-30 04:57:00,